GW7711 Weather Reports


time (UTC)temp
C
wind
direction
speed
KPH
gust
KPH
rain 1hr
cm
rain 24hr
cm
rain mn
cm
humidity
%
barometer
mb
20260905211602 16 338 0.0 0.0 0.00 0.00 0.15 68 1022.1
20260905211052 16 352 0.0 1.6 0.00 0.00 0.15 68 1022.1
20260905210544 16 29 0.0 3.2 0.00 0.00 0.15 69 1021.9
20260905210040 16 4 1.6 3.2 0.00 0.00 0.15 69 1021.9
20260905205522 16 36 0.0 1.6 0.00 0.00 0.15 68 1021.9
20260905205023 16 333 1.6 3.2 0.00 0.00 0.15 68 1021.8
20260905204503 16 45 0.0 1.6 0.00 0.00 0.15 68 1021.8
20260905204007 17 66 0.0 0.0 0.00 0.00 0.15 66 1021.8
20260905203442 17 88 0.0 0.0 0.00 0.00 0.15 66 1021.8
20260905202948 17 250 0.0 1.6 0.00 0.00 0.15 65 1021.7
20260905202422 17 338 0.0 1.6 0.00 0.00 0.15 65 1021.7
20260905201912 17 68 0.0 1.6 0.00 0.00 0.15 65 1021.7
20260905201402 17 45 0.0 3.2 0.00 0.00 0.15 65 1021.7
20260905200852 17 74 0.0 1.6 0.00 0.00 0.15 63 1021.5
20260905200342 17 90 0.0 1.6 0.00 0.00 0.15 63 1021.5
20260905195832 18 88 0.0 1.6 0.00 0.00 0.15 61 1021.4
20260905195337 18 99 0.0 1.6 0.00 0.00 0.15 61 1021.4
20260905194812 18 90 0.0 0.0 0.00 0.00 0.15 60 1021.2
20260905194302 18 108 0.0 1.6 0.00 0.00 0.15 60 1021.2
20260905193752 18 151 0.0 1.6 0.00 0.00 0.15 58 1021.1
20260905193259 18 68 0.0 0.0 0.00 0.00 0.15 58 1021.1
20260905192732 18 22 0.0 3.2 0.00 0.00 0.15 57 1020.9
20260905192222 18 27 0.0 1.6 0.00 0.00 0.15 57 1020.9
20260905191712 18 22 0.0 1.6 0.00 0.00 0.15 57 1020.9
20260905191201 19 287 1.6 1.6 0.00 0.00 0.15 56 1020.9
20260905190707 19 270 1.6 3.2 0.00 0.00 0.15 56 1020.9
20260905190156 19 266 1.6 4.8 0.00 0.00 0.15 55 1020.8
20260905185632 19 346 1.6 3.2 0.00 0.00 0.15 55 1020.8
20260905185122 19 3 0.0 1.6 0.00 0.00 0.15 53 1020.6
20260905184627 19 18 0.0 0.0 0.00 0.00 0.15 53 1020.6
20260905184101 20 10 0.0 1.6 0.00 0.00 0.15 50 1020.3
20260905183552 20 310 1.6 3.2 0.00 0.00 0.15 50 1020.3
20260905183041 20 332 1.6 3.2 0.00 0.00 0.15 50 1020.4
20260905182531 20 336 1.6 3.2 0.00 0.00 0.15 50 1020.4
20260905182022 20 319 1.6 3.2 0.00 0.00 0.15 47 1020.2
20260905181512 20 324 1.6 3.2 0.00 0.00 0.15 47 1020.2
20260905181001 21 297 1.6 3.2 0.00 0.00 0.15 47 1020.1
20260905180451 21 315 1.6 3.2 0.00 0.00 0.15 47 1020.1
20260905175956 21 329 1.6 3.2 0.00 0.00 0.15 47 1020.0
20260905175431 21 308 1.6 3.2 0.00 0.00 0.15 47 1020.0
20260905174936 21 301 3.2 4.8 0.00 0.00 0.15 46 1019.8
20260905174414 21 328 3.2 4.8 0.00 0.00 0.15 46 1019.8
20260905173902 21 323 3.2 4.8 0.00 0.00 0.15 46 1019.8
20260905173351 21 299 3.2 4.8 0.00 0.00 0.15 46 1019.8
20260905172840 21 307 3.2 8.0 0.00 0.00 0.15 45 1019.7
20260905172331 21 325 4.8 9.7 0.00 0.00 0.15 44 1019.5
20260905171821 21 348 4.8 8.0 0.00 0.00 0.15 44 1019.5
20260905171311 22 292 4.8 9.7 0.00 0.00 0.15 42 1019.5
20260905170801 22 288 4.8 8.0 0.00 0.00 0.15 42 1019.5
20260905170252 22 318 6.4 9.7 0.00 0.00 0.15 41 1019.5
20260905165741 22 288 6.4 11.3 0.00 0.00 0.15 41 1019.5
20260905165231 22 319 8.0 12.9 0.00 0.00 0.15 40 1019.5
20260905164721 22 324 9.7 19.3 0.00 0.00 0.15 40 1019.5
20260905164211 22 313 9.7 16.1 0.00 0.00 0.15 40 1019.3
20260905163701 22 315 11.3 16.1 0.00 0.00 0.15 40 1019.3
20260905163151 23 327 8.0 14.5 0.00 0.00 0.15 39 1019.2
20260905162640 23 329 9.7 19.3 0.00 0.00 0.15 39 1019.2
20260905162131 23 308 12.9 22.5 0.00 0.00 0.15 39 1019.0
20260905161620 23 301 11.3 20.9 0.00 0.00 0.15 39 1019.0
20260905161111 23 310 9.7 20.9 0.00 0.00 0.15 39 1018.9
20260905160600 23 318 9.7 19.3 0.00 0.00 0.15 39 1018.9
20260905160104 23 308 9.7 14.5 0.00 0.00 0.15 39 1018.8
20260905155540 23 322 9.7 17.7 0.00 0.00 0.15 39 1018.8
20260905155046 24 339 9.7 16.1 0.00 0.00 0.15 38 1018.7
20260905154520 24 338 9.7 16.1 0.00 0.00 0.15 38 1018.5
20260905154010 24 320 9.7 19.3 0.00 0.00 0.15 38 1018.5
20260905153501 25 323 9.7 17.7 0.00 0.00 0.15 38 1018.6
20260905153005 25 311 8.0 19.3 0.00 0.00 0.15 38 1018.6
20260905152440 25 335 9.7 17.7 0.00 0.00 0.15 38 1018.4
20260905151945 25 327 9.7 17.7 0.00 0.00 0.15 38 1018.4
20260905151420 25 296 8.0 14.5 0.00 0.00 0.15 37 1018.4
20260905150925 25 330 9.7 16.1 0.00 0.00 0.15 37 1018.4
20260905150400 26 296 11.3 20.9 0.00 0.00 0.15 37 1018.5
20260905145850 26 310 9.7 16.1 0.00 0.00 0.15 37 1018.5
20260905145355 26 315 8.0 12.9 0.00 0.00 0.15 36 1018.4
20260905144830 26 308 11.3 20.9 0.00 0.00 0.15 36 1018.4
20260905144320 26 310 9.7 20.9 0.00 0.00 0.15 35 1018.4
20260905143810 26 298 9.7 20.9 0.00 0.00 0.15 35 1018.4
20260905143300 26 296 11.3 16.1 0.00 0.00 0.15 38 1018.3
20260905142750 26 325 6.4 12.9 0.00 0.00 0.15 38 1018.3
20260905142239 26 295 11.3 27.4 0.00 0.00 0.15 37 1018.5
20260905141745 26 302 11.3 17.7 0.00 0.00 0.15 37 1018.5
20260905141219 26 299 11.3 19.3 0.00 0.00 0.15 37 1018.5
20260905140710 26 298 12.9 22.5 0.00 0.00 0.15 37 1018.5
20260905140200 26 308 11.3 19.3 0.00 0.00 0.15 37 1018.5
20260905135705 26 312 12.9 24.1 0.00 0.00 0.15 37 1018.6
20260905135139 26 284 11.3 19.3 0.00 0.00 0.15 37 1018.6
20260905134630 26 302 12.9 20.9 0.00 0.00 0.15 36 1018.6
20260905134119 26 311 14.5 25.7 0.00 0.00 0.15 36 1018.6
20260905133625 25 330 12.9 25.7 0.00 0.00 0.15 36 1018.6
20260905133059 25 322 11.3 20.9 0.00 0.00 0.15 36 1018.6
20260905132605 26 279 12.9 20.9 0.00 0.00 0.15 38 1018.7
20260905132039 26 322 12.9 20.9 0.00 0.00 0.15 38 1018.7
20260905131529 26 315 8.0 16.1 0.00 0.00 0.15 39 1018.6
20260905131019 26 334 8.0 11.3 0.00 0.00 0.15 39 1018.6
20260905130509 26 329 9.7 16.1 0.00 0.00 0.15 40 1018.6
20260905130014 26 321 9.7 19.3 0.00 0.00 0.15 40 1018.6
20260905125449 25 270 8.0 17.7 0.00 0.00 0.15 44 1018.6
20260905124939 25 263 8.0 16.1 0.00 0.00 0.15 44 1018.6
20260905124429 25 256 11.3 19.3 0.00 0.00 0.15 44 1018.7
20260905123934 25 263 12.9 19.3 0.00 0.00 0.15 44 1018.7
20260905123409 25 249 8.0 16.1 0.00 0.00 0.15 46 1018.9
20260905122858 25 305 9.7 16.1 0.00 0.00 0.15 46 1018.9
20260905122405 23 327 9.7 20.9 0.00 0.00 0.15 46 1019.0
20260905121838 24 355 9.7 17.7 0.00 0.00 0.15 44 1019.2
20260905121329 24 343 8.0 19.3 0.00 0.00 0.15 44 1019.2
20260905120818 23 353 8.0 17.7 0.00 0.00 0.15 49 1019.2
20260905120309 23 304 8.0 19.3 0.00 0.00 0.15 49 1019.2
20260905115758 23 330 8.0 14.5 0.00 0.00 0.15 49 1019.4
20260905115249 23 317 8.0 16.1 0.00 0.00 0.15 49 1019.4
20260905114753 23 301 8.0 16.1 0.00 0.00 0.15 52 1019.3
20260905114229 23 279 6.4 12.9 0.00 0.00 0.15 52 1019.3
20260905113719 23 267 9.7 16.1 0.00 0.00 0.15 52 1019.3
20260905113209 23 276 8.0 16.1 0.00 0.00 0.15 52 1019.3
20260905112658 22 296 8.0 17.7 0.00 0.00 0.15 54 1019.4
20260905112149 22 310 8.0 12.9 0.00 0.00 0.15 54 1019.4
20260905111638 22 309 8.0 14.5 0.00 0.00 0.15 52 1019.5
20260905111128 22 300 9.7 16.1 0.00 0.00 0.15 52 1019.5
20260905110619 21 302 6.4 12.9 0.00 0.00 0.15 56 1019.7
20260905110109 21 312 6.4 11.3 0.00 0.00 0.15 56 1019.7
20260905105558 22 305 4.8 9.7 0.00 0.00 0.15 57 1019.7
20260905105048 22 273 8.0 12.9 0.00 0.00 0.15 57 1019.7
20260905104553 22 272 8.0 12.9 0.00 0.00 0.15 52 1019.7
20260905104031 22 301 9.7 16.1 0.00 0.00 0.15 56 1019.7
20260905103518 22 275 6.4 11.3 0.00 0.00 0.15 56 1019.7
20260905103009 22 348 6.4 11.3 0.00 0.00 0.15 59 1019.6
20260905102458 22 338 6.4 12.9 0.00 0.00 0.15 59 1019.6
20260905101948 21 292 6.4 12.9 0.00 0.00 0.15 58 1019.7
20260905101438 21 292 6.4 12.9 0.00 0.00 0.15 58 1019.7
20260905100943 21 324 6.4 12.9 0.00 0.00 0.15 61 1019.8
20260905100418 21 355 6.4 14.5 0.00 0.00 0.15 61 1019.8
20260905095908 21 299 4.8 9.7 0.00 0.00 0.15 62 1019.8
20260905095358 21 328 6.4 14.5 0.00 0.00 0.15 62 1019.8
20260905094848 20 309 6.4 17.7 0.00 0.00 0.15 66 1019.8
20260905094338 20 332 6.4 11.3 0.00 0.00 0.15 66 1019.8
20260905093829 21 288 8.0 12.9 0.00 0.00 0.15 66 1020.1
20260905093333 21 270 8.0 14.5 0.00 0.00 0.15 66 1020.1
20260905092809 20 307 8.0 14.5 0.00 0.00 0.15 65 1020.2
20260905092257 20 317 8.0 14.5 0.00 0.00 0.15 65 1020.2
20260905091803 19 298 8.0 11.3 0.00 0.00 0.15 69 1020.5
20260905091237 19 313 6.4 12.9 0.00 0.00 0.15 69 1020.5
20260905090728 19 277 6.4 12.9 0.00 0.00 0.15 72 1020.5
20260905090217 19 296 6.4 14.5 0.00 0.00 0.15 72 1020.5
20260905085708 18 291 6.4 14.5 0.00 0.00 0.15 72 1020.5
20260905085157 18 288 8.0 14.5 0.00 0.00 0.15 75 1020.6
20260905084703 18 297 6.4 14.5 0.00 0.00 0.15 75 1020.6
20260905084137 18 301 6.4 9.7 0.00 0.00 0.15 79 1020.6
20260905083627 18 299 4.8 9.7 0.00 0.00 0.15 79 1020.6
20260905083118 18 270 3.2 6.4 0.00 0.00 0.15 82 1020.4
20260905082608 18 291 4.8 8.0 0.00 0.00 0.15 82 1020.4
20260905082057 17 356 3.2 6.4 0.00 0.00 0.15 81 1020.2
20260905081603 17 333 3.2 6.4 0.00 0.00 0.15 81 1020.2
20260905081037 17 321 4.8 11.3 0.00 0.00 0.15 84 1019.9
20260905080527 17 292 4.8 9.7 0.00 0.00 0.15 84 1019.9
20260905080017 17 284 4.8 9.7 0.00 0.00 0.15 89 1019.8
20260905075507 17 303 4.8 9.7 0.00 0.00 0.15 89 1019.8
20260905074957 17 280 3.2 8.0 0.00 0.00 0.15 88 1019.7
20260905074447 17 287 4.8 6.4 0.00 0.00 0.15 88 1019.7
20260905073936 17 286 3.2 6.4 0.00 0.00 0.15 86 1019.0
20260905073443 17 245 3.2 6.4 0.00 0.00 0.15 86 1019.0
20260905072917 17 239 4.8 8.0 0.00 0.00 0.15 87 1018.9
20260905072407 17 243 4.8 6.4 0.00 0.00 0.15 87 1018.9
20260905071912 17 225 3.2 6.4 0.00 0.00 0.15 87 1019.0
20260905071347 17 258 3.2 6.4 0.00 0.00 0.15 88 1019.3
20260905070837 17 253 3.2 4.8 0.00 0.00 0.15 88 1019.3
20260905070327 17 270 1.6 6.4 0.00 0.00 0.15 88 1019.2
20260905065817 17 268 3.2 6.4 0.00 0.00 0.15 88 1019.2
20260905065307 17 217 3.2 6.4 0.00 0.00 0.15 87 1019.5
20260905064756 17 246 3.2 4.8 0.00 0.00 0.15 87 1019.5
20260905064302 17 266 4.8 8.0 0.03 0.00 0.15 89 1019.0
20260905063736 17 253 3.2 4.8 0.03 0.00 0.15 89 1019.0
20260905063227 17 248 0.0 0.0 0.03 0.00 0.15 87 1018.5
20260905062716 17 159 0.0 0.0 0.03 0.00 0.15 87 1018.5
20260905062207 17 250 0.0 0.0 0.03 0.00 0.15 89 1018.5
20260905061657 17 26 0.0 0.0 0.03 0.00 0.15 89 1018.5
20260905061147 16 72 0.0 1.6 0.03 0.00 0.15 89 1019.0
20260905060636 16 310 0.0 1.6 0.05 0.00 0.15 89 1019.0
20260905060127 17 347 1.6 3.2 0.05 0.00 0.15 86 1018.3
20260905055616 17 163 1.6 1.6 0.05 0.00 0.15 86 1018.3
20260905055106 16 167 3.2 3.2 0.05 0.00 0.15 86 1018.4
20260905054556 16 202 1.6 3.2 0.05 0.00 0.15 86 1018.4
20260905054047 17 55 1.6 3.2 0.03 0.00 0.10 83 1018.4
20260905053551 17 44 1.6 3.2 0.03 0.00 0.10 83 1018.4
20260905053032 17 355 1.6 3.2 0.03 0.00 0.10 85 1018.2
20260905052531 17 53 1.6 3.2 0.03 0.00 0.10 85 1018.5
20260905052021 17 36 1.6 6.4 0.03 0.00 0.10 85 1018.5
20260905051456 17 315 3.2 6.4 0.03 0.00 0.10 83 1018.1
20260905050947 17 315 3.2 4.8 0.05 0.00 0.10 83 1018.1
20260905050436 17 298 4.8 11.3 0.08 0.00 0.08 87 1018.3
20260905045926 17 279 4.8 6.4 0.08 0.00 0.08 87 1018.3
20260905045416 17 283 1.6 4.8 0.08 0.00 0.08 82 1017.1
20260905044907 17 58 0.0 1.6 0.08 0.00 0.08 82 1017.1
20260905044356 17 58 1.6 4.8 0.08 0.00 0.08 82 1017.5
20260905043901 17 13 1.6 4.8 0.08 0.00 0.08 82 1017.5
20260905043350 17 319 3.2 4.8 0.08 0.00 0.08 80 1017.0
20260905042826 17 38 3.2 8.0 0.08 0.00 0.08 80 1017.0
20260905042318 18 28 3.2 6.4 0.08 0.00 0.08 76 1016.7
20260905041821 18 40 8.0 17.7 0.08 0.00 0.08 76 1016.7
20260905041311 19 12 8.0 17.7 0.05 0.00 0.05 70 1016.9
20260905040801 19 0 9.7 11.3 0.03 0.00 0.05 70 1016.9
20260905040236 20 4 4.8 9.7 0.00 0.00 0.00 67 1015.9
20260905035727 20 27 4.8 9.7 0.00 0.00 0.00 67 1015.9
20260905035216 20 36 4.8 8.0 0.00 0.00 0.00 66 1015.5
20260905034706 20 22 4.8 8.0 0.00 0.00 0.00 66 1015.4
20260905034211 20 45 4.8 9.7 0.00 0.00 0.00 66 1015.4
20260905033646 20 31 4.8 9.7 0.00 0.00 0.00 66 1015.3
20260905033135 20 32 4.8 9.7 0.00 0.00 0.00 66 1015.3
20260905032626 20 49 4.8 8.0 0.00 0.00 0.00 65 1015.1
20260905032115 20 41 3.2 8.0 0.00 0.00 0.00 65 1015.1
20260905031621 20 54 4.8 11.3 0.00 0.00 0.00 64 1014.9
20260905031055 20 53 4.8 8.0 0.00 0.00 0.00 64 1014.9
20260905030601 21 56 4.8 9.7 0.00 0.00 0.00 62 1014.9
20260905030035 21 50 4.8 9.7 0.00 0.00 0.00 62 1014.9
20260905025526 21 40 6.4 14.5 0.00 0.00 0.00 61 1014.9
20260905025015 21 22 8.0 16.1 0.00 0.00 0.00 61 1014.9
20260905024505 21 54 6.4 14.5 0.00 0.00 0.00 60 1014.6
20260905023955 21 21 6.4 16.1 0.00 0.00 0.00 60 1014.6
20260905023446 21 31 8.0 14.5 0.00 0.00 0.00 61 1014.3
20260905022935 21 38 8.0 16.1 0.00 0.00 0.00 61 1014.3
20260905022425 22 18 8.0 19.3 0.00 0.00 0.00 60 1014.3
20260905021915 22 19 8.0 17.7 0.00 0.00 0.00 60 1014.3
20260905021405 22 2 6.4 17.7 0.00 0.00 0.00 60 1014.3
20260905020855 22 13 9.7 19.3 0.00 0.00 0.00 61 1014.1
20260905020345 22 347 11.3 20.9 0.00 0.00 0.00 61 1014.1
20260905015835 22 18 12.9 22.5 0.00 0.00 0.00 62 1013.9
20260905015325 22 4 12.9 24.1 0.00 0.00 0.00 62 1013.9
20260905014814 20 353 9.7 6.4 0.00 0.00 0.00 72 1013.3
20260905014305 20 319 1.6 4.8 0.00 0.00 0.00 72 1013.3
20260905013755 20 19 1.6 4.8 0.00 0.00 0.00 76 1013.1
20260905013245 20 345 1.6 3.2 0.00 0.00 0.00 76 1013.1
20260905012749 20 32 0.0 1.6 0.00 0.00 0.00 78 1012.8
20260905012225 20 41 0.0 1.6 0.00 0.00 0.00 78 1012.8
20260905011714 20 142 0.0 1.6 0.00 0.00 0.00 78 1012.9
20260905011205 20 347 0.0 3.2 0.00 0.00 0.00 78 1012.9
20260905010709 20 232 0.0 0.0 0.00 0.00 0.00 79 1012.7
20260905010200 20 90 0.0 0.0 0.00 0.00 0.00 79 1012.7
20260905005636 20 63 0.0 0.0 0.00 0.00 0.00 79 1012.5
20260905005124 20 117 0.0 0.0 0.00 0.00 0.00 79 1012.5
20260905004629 20 148 0.0 0.0 0.00 0.00 0.00 77 1012.4
20260905004119 20 145 0.0 0.0 0.00 0.00 0.00 77 1012.4
20260905003554 20 90 0.0 0.0 0.00 0.00 0.00 77 1012.4
20260905003045 20 95 0.0 0.0 0.00 0.00 0.00 77 1012.4
20260905002534 20 93 0.0 0.0 0.00 0.00 0.00 77 1012.3
20260905002031 20 183 0.0 0.0 0.00 0.00 0.00 76 1012.2
20260905001529 20 117 0.0 0.0 0.00 0.00 0.00 76 1012.2
20260905001005 20 72 0.0 0.0 0.00 0.00 0.00 75 1012.2
20260905000509 20 99 1.6 3.2 0.00 0.00 0.00 75 1012.2
20260904235944 20 81 0.0 1.6 0.00 0.00 0.00 75 1012.1
20260904235449 20 103 0.0 3.2 0.00 0.00 0.00 75 1012.1
20260904234924 20 58 0.0 0.0 0.00 0.00 0.00 75 1012.0
20260904234414 20 72 0.0 0.0 0.00 0.00 0.00 75 1012.0
20260904233904 21 92 0.0 0.0 0.00 0.00 0.00 72 1012.1
20260904233354 21 45 0.0 0.0 0.00 0.00 0.00 72 1012.1
20260904232844 21 54 0.0 0.0 0.00 0.00 0.00 66 1011.9
20260904232333 21 195 0.0 3.2 0.00 0.00 0.00 66 1011.9
20260904231824 21 238 1.6 3.2 0.00 0.00 0.00 63 1012.0
20260904231314 21 261 1.6 6.4 0.00 0.00 0.00 63 1012.0
20260904230805 20 230 3.2 6.4 0.00 0.00 0.00 66 1011.9
20260904230254 20 209 1.6 4.8 0.00 0.00 0.00 66 1011.9
20260904225744 20 164 1.6 3.2 0.00 0.00 0.00 68 1012.0
20260904225233 20 153 1.6 3.2 0.00 0.00 0.00 68 1012.0
20260904224724 20 117 0.0 0.0 0.00 0.00 0.00 68 1012.0
20260904224214 20 111 0.0 1.6 0.00 0.00 0.00 69 1012.0
20260904223704 20 94 0.0 0.0 0.00 0.00 0.00 69 1012.0
20260904223153 20 94 0.0 0.0 0.00 0.00 0.00 67 1011.9
20260904222643 20 99 0.0 1.6 0.00 0.00 0.00 67 1011.9
20260904222133 20 99 0.0 1.6 0.00 0.00 0.00 66 1011.9
20260904221625 20 99 0.0 0.0 0.00 0.00 0.00 66 1011.9
20260904221128 20 112 0.0 1.6 0.00 0.00 0.00 67 1012.0
20260904220603 20 132 1.6 3.2 0.00 0.00 0.00 67 1012.0
20260904220004 20 135 0.0 3.2 0.00 0.00 0.00 66 1011.9
20260904215558 20 97 1.6 1.6 0.00 0.00 0.00 66 1011.9
20260904215033 20 90 1.6 3.2 0.00 0.00 0.00 66 1011.9
20260904214523 20 72 1.6 3.2 0.00 0.00 0.00 66 1011.9
20260904214014 21 77 0.0 1.6 0.00 0.00 0.00 64 1011.7
20260904213505 21 117 0.0 1.6 0.00 0.00 0.00 64 1011.7
20260904212955 21 131 1.6 3.2 0.00 0.00 0.00 65 1011.8
20260904212443 21 95 1.6 3.2 0.00 0.00 0.00 65 1011.8
20260904211933 21 126 1.6 4.8 0.00 0.00 0.00 63 1011.9